Regional Weather Roundup
Issued by NWS

Home | Current Version | Previous Version | Text Only | Print | Product List | Glossary On
Versions: 1 2 3 4 5 6 7 8 9 10 11 12 13 14 15 16 17 18 19 20 21 22 23 24 25 26 27 28 29 30 31 32 33 34 35 36 37 38 39 40 41 42 43 44 45 46 47 48 49 50
000
ASUS44 KBMX 201410
RWRAL

ALABAMA REGIONAL WEATHER ROUNDUP
NATIONAL WEATHER SERVICE BIRMINGHAM AL
800 AM CST TUE FEB 20 2018

NOTE: "FAIR" INDICATES FEW OR NO CLOUDS BELOW 12,000 FEET
WITH NO SIGNIFICANT WEATHER AND/OR OBSTRUCTIONS TO VISIBILITY.

THE REMARK "TC" DENOTES TEMPERATURE IN DEGREES CELSIUS.

ALZ001>011-014-016>018-020-201500-
NORTH ALABAMA

CITY           SKY/WX    TMP DP  RH WIND       PRES   REMARKS
MUSCLE SHOALS  FAIR      65  58  78 S8        30.26R
HUNTSVILLE     FAIR      64  60  87 SE7       30.28R
DECATUR          N/A     63  59  87 SE9       30.28R
HALEYVILLE     CLOUDY    61  61 100 S13       30.29R
GADSDEN        FAIR      62  61  96 N7        30.31R
$$

ALZ012-013-022-023-030>036-040>044-201500-
WEST CENTRAL ALABAMA

CITY           SKY/WX    TMP DP  RH WIND       PRES   REMARKS
TUSCALOOSA     FAIR      65  62  90 SE7       30.26R
DEMOPOLIS        N/A     66  61  84 SE7       30.25R
$$

ALZ015-024>026-033>036-041>044-201500-
CENTRAL ALABAMA

CITY           SKY/WX    TMP DP  RH WIND       PRES   REMARKS
BIRMINGHAM     FAIR      67  57  70 SE12      30.30R
MONTGOMERY     FAIR      64  61  90 E6        30.29R
SHELBY CO ARPT FAIR      64  60  87 SE10      30.29R
MAXWELL AFB    FAIR      66  61  84 SE14      30.28R
GREENVILLE     FAIR      65  60  84 SE8       30.27R
SELMA          FAIR      63  59  88 SE7       30.27R
PRATTVILLE     FAIR      64  61  89 SE5       30.29R
BESSEMER       FAIR      63  58  83 SE8G17    30.29R
TALLADEGA      FAIR      66  61  82 SE7       30.31R
PELL CITY      SUNNY     68  63  83 SE5       30.30R
MARION         FAIR      63  61  93 S7        30.26R
SYLACAUGA      FAIR      68  66  94 SE8       30.30S
$$

ALZ019-021-028-029-037-038-045>048-201500-
EAST CENTRAL ALABAMA

CITY           SKY/WX    TMP DP  RH WIND       PRES   REMARKS
ANNISTON       FAIR      64  59  83 NE6       30.32R
ALEXANDER CITY CLOUDY    64  64 100 SE3       30.32S
AUBURN         CLOUDY    63  62  97 SE10      30.35R
$$

ALZ051>064-201500-
SOUTHWEST ALABAMA

CITY           SKY/WX    TMP DP  RH WIND       PRES   REMARKS
MOBILE         FAIR      71  66  84 SE16      30.22S
BROOKLEY FIELD FAIR      67  66  97 SE5       30.23R
EVERGREEN      FAIR      64  60  87 SE6       30.26R
$$

ALZ049-050-065>069-201500-
SOUTHEAST ALABAMA

CITY           SKY/WX    TMP DP  RH WIND       PRES   REMARKS
DOTHAN         CLOUDY    65  65 100 SE9       30.35S FOG
OZARK          CLOUDY    66  64  94 SE6       30.30S
TROY           CLOUDY    65  63  93 SE12      30.31R
EUFAULA        CLOUDY    67  65  93 SE7       30.33R
$$



USA.gov is the U.S. government's official web portal to all federal, state and local government web resources and services.